Regional Weather Roundup
Issued by NWS

Home | Current Version | Previous Version | Graphics & Text | Print | Product List | Glossary On
Versions: 1 2 3 4 5 6 7 8 9 10 11 12 13 14 15 16 17 18 19 20 21 22 23 24 25 26 27 28 29 30 31 32 33 34 35 36 37 38 39 40 41 42 43 44 45 46 47 48 49 50
000
ASUS43 KFSD 280910
RWRSD

WEATHER ROUNDUP FOR SOUTH DAKOTA
NATIONAL WEATHER SERVICE SIOUX FALLS SD
400 AM CDT SUN AUG 28 2016

NOTE: "FAIR" INDICATES FEW OR NO CLOUDS BELOW 12,000 FEET WITH NO
SIGNIFICANT WEATHER AND/OR OBSTRUCTIONS TO VISIBILITY.


SDZ001>005-009-010-012>017-281000-
NORTHWEST AND NORTH CENTRAL SOUTH DAKOTA

CITY           SKY/WX    TMP DP  RH WIND       PRES   REMARKS
BUFFALO          N/A     62  55  77 W3        29.83S
FAITH            N/A     61  56  83 S15       29.88S
MOBRIDGE       CLEAR     67  61  81 SE9       29.88S
$$

SDZ012>016-024>037-041>051-057-063-072>074-281000-
SOUTHWEST AND SOUTH CENTRAL SOUTH DAKOTA

CITY           SKY/WX    TMP DP  RH WIND       PRES   REMARKS
RAPID CTY ARPT CLEAR     59  52  77 SE9       29.92S
PIERRE         PTCLDY    69  61  75 S9        29.89F
CUSTER         CLEAR     50  42  74 W5        30.08S
ELLSWORTH AFB  CLEAR     64  52  63 S9        29.91S
PHILIP         CLEAR     68  60  75 CALM      29.90F
PINE RIDGE     CLEAR     67  62  84 S22G29    29.97S
WINNER         FAIR      72  65  78 S14       29.96S
$$

SDZ004>011-016>023-039-040-281000-
NORTHEAST SOUTH DAKOTA

CITY           SKY/WX    TMP DP  RH WIND       PRES   REMARKS
ABERDEEN       CLEAR     67  63  87 SE9       29.95R
WATERTOWN      CLOUDY    68  63  84 SE9G18    30.02R
BROOKINGS      CLEAR     64  62  93 SE10      30.03R
SISSETON         N/A     63  60  90 S12       29.99F
$$

SDZ017-020-022-023-036>040-048>070-281000-
SOUTHEAST SOUTH DAKOTA

CITY           SKY/WX    TMP DP  RH WIND       PRES   REMARKS
SIOUX FALLS    CLEAR     68  65  90 SE7       30.02S
HURON          CLEAR     67  64  90 S12       29.94S
CHAMBERLAIN    CLEAR     71  66  84 S7        29.95S
MITCHELL       CLEAR     67  64  90 S9        29.97S
YANKTON        CLEAR     68  63  83 S12       29.99F
$$

ABBREVIATIONS USED IN REMARKS
   TC - TEMPERATURE IN CELSIUS
  WCI - WIND CHILL INDEX
   HX - HEAT INDEX
  VSB - VISIBILITY





USA.gov is the U.S. government's official web portal to all federal, state and local government web resources and services.